Change the Weather History Date:

Thursday, November 8, 2012

  Actual Average (KOTM) Record (KOTM)
Temperature  
Mean Temperature 44 °F 43 °F  
Max Temperature 58 °F 53 °F 79 °F (1999)
Min Temperature 30 °F 33 °F -3 °F (1991)
Degree Days  
Heating Degree Days 21 22  
Month to date heating degree days 161  
Since 1 July heating degree days 685  
Cooling Degree Days 0 0  
Month to date cooling degree days 0  
Year to date cooling degree days 938  
Moisture  
Dew Point 34 °F    
Average Humidity 73    
Maximum Humidity 92    
Minimum Humidity 43    
Precipitation  
Precipitation 0.00 in 0.08 in 1.30 in (1932)
Month to date precipitation 0.71  
Year to date precipitation 34.03  
Sea Level Pressure  
Sea Level Pressure 30.05 in    
Wind  
Wind Speed 9 mph (SSE)    
Max Wind Speed 17 mph    
Max Gust Speed 22 mph    
Visibility 10 miles    
Events      
T = Trace of Precipitation, MM = Missing Value Source: NWS Daily Summary

Daily Weather History Graph

Daily Weather History Graph

Search for Another Location

Airport or City:

Trip Planner

Search our weather history database for the weather conditions in past years. The results will help you decide how hot, cold, wet, or windy it might be!

Date:

Astronomy

Nov. 08, 2012 Rise Set
Actual Time 6:50 AM CST 4:56 PM CST
Civil Twilight 6:21 AM CST 5:25 PM CST
Nautical Twilight 5:48 AM CST 5:58 PM CST
Astronomical Twilight 5:15 AM CST 6:31 PM CST
Moon 12:42 AM CST (11/8) 1:41 PM CST (11/8)
Length of Visible Light 11h 04m
Length of Day
10h 06m
Waning Crescent, 32% of the Moon is Illuminated
Nov 8
Waning Crescent
Nov 13
New
Nov 20
First Quarter
Nov 28
Full
Dec 6
Last Quarter

Hourly Weather History & Observations

Time (CST) Temp. Windchill Dew Point Humidity Pressure Visibility Wind Dir Wind Speed Gust Speed Precip Events Conditions
12:15 AM 32.7 °F 27.3 °F 30.2 °F 90% 30.15 in 10.0 mi South 5.8 mph - N/A   Clear
12:35 AM 32.0 °F 25.6 °F 29.3 °F 90% 30.14 in 10.0 mi SSE 6.9 mph - N/A   Clear
12:55 AM 31.6 °F 26.0 °F 28.9 °F 90% 30.14 in 10.0 mi SSE 5.8 mph - N/A   Clear
1:15 AM 31.1 °F 24.5 °F 28.4 °F 90% 30.14 in 10.0 mi SSE 6.9 mph - N/A   Clear
1:35 AM 31.5 °F 25.8 °F 28.9 °F 90% 30.14 in 10.0 mi SSE 5.8 mph - N/A   Clear
1:55 AM 31.1 °F 25.4 °F 28.6 °F 90% 30.15 in 10.0 mi SSE 5.8 mph - N/A   Clear
2:15 AM 30.6 °F 23.8 °F 28.0 °F 90% 30.14 in 10.0 mi SSE 6.9 mph - N/A   Clear
2:35 AM 30.9 °F 25.2 °F 28.4 °F 90% 30.14 in 10.0 mi SSE 5.8 mph - N/A   Clear
2:55 AM 32.0 °F 25.6 °F 29.8 °F 92% 30.14 in 10.0 mi SSE 6.9 mph - N/A   Clear
3:15 AM 31.1 °F 25.4 °F 28.6 °F 90% 30.13 in 10.0 mi SSE 5.8 mph - N/A   Clear
3:35 AM 30.2 °F 23.4 °F 27.7 °F 90% 30.13 in 10.0 mi SSE 6.9 mph - N/A   Clear
3:55 AM 30.2 °F 23.4 °F 28.0 °F 92% 30.13 in 10.0 mi SSE 6.9 mph - N/A   Clear
4:15 AM 31.1 °F 24.5 °F 28.9 °F 92% 30.13 in 10.0 mi SE 6.9 mph - N/A   Clear
4:35 AM 31.1 °F 23.7 °F 28.9 °F 92% 30.12 in 10.0 mi SE 8.1 mph - N/A   Clear
4:55 AM 31.3 °F 23.9 °F 28.9 °F 91% 30.12 in 10.0 mi SE 8.1 mph - N/A   Clear
5:15 AM 31.1 °F 23.7 °F 28.8 °F 91% 30.12 in 7.0 mi SE 8.1 mph - N/A   Clear
5:35 AM 31.1 °F 23.7 °F 28.9 °F 92% 30.11 in 10.0 mi SE 8.1 mph - N/A   Clear
5:55 AM 31.1 °F 23.7 °F 28.9 °F 92% 30.11 in 10.0 mi SE 8.1 mph - N/A   Clear
6:15 AM 31.1 °F 23.7 °F 28.6 °F 90% 30.10 in 7.0 mi SSE 8.1 mph - N/A   Clear
6:55 AM 31.5 °F 24.2 °F 29.1 °F 91% 30.11 in 10.0 mi SSE 8.1 mph - N/A   Clear
7:15 AM 31.6 °F 25.1 °F 29.1 °F 90% 30.11 in 7.0 mi SSE 6.9 mph - N/A   Clear
7:35 AM 32.9 °F 26.7 °F 30.9 °F 92% 30.11 in 7.0 mi South 6.9 mph - N/A   Clear
7:55 AM 34.9 °F 29.0 °F 32.0 °F 89% 30.12 in 10.0 mi SSE 6.9 mph - N/A   Clear
8:15 AM 36.7 °F 29.4 °F 32.9 °F 86% 30.12 in 10.0 mi SSE 10.4 mph - N/A   Clear
8:35 AM 38.7 °F 31.8 °F 33.8 °F 83% 30.11 in 10.0 mi SSE 10.4 mph - N/A   Clear
8:55 AM 40.3 °F 33.4 °F 34.5 °F 80% 30.11 in 10.0 mi SSE 11.5 mph - N/A   Clear
9:15 AM 42.3 °F 34.8 °F 35.1 °F 76% 30.11 in 10.0 mi South 15.0 mph - N/A   Clear
9:35 AM 44.1 °F 37.1 °F 35.6 °F 72% 30.11 in 10.0 mi South 15.0 mph - N/A   Clear
9:55 AM 46.4 °F 40.7 °F 36.1 °F 67% 30.10 in 10.0 mi South 12.7 mph - N/A   Clear
10:15 AM 48.2 °F - 36.1 °F 63% 30.10 in 10.0 mi South 13.8 mph - N/A   Clear
10:35 AM 49.8 °F - 36.3 °F 60% 30.10 in 10.0 mi South 12.7 mph - N/A   Clear
10:55 AM 51.1 °F - 36.3 °F 57% 30.09 in 10.0 mi SSE 15.0 mph - N/A   Clear
11:15 AM 52.2 °F - 36.3 °F 55% 30.08 in 10.0 mi SSE 15.0 mph 18.4 mph N/A   Clear
11:35 AM 53.4 °F - 36.9 °F 53% 30.07 in 10.0 mi SSE 15.0 mph - N/A   Clear
11:55 AM 54.3 °F - 36.3 °F 51% 30.06 in 10.0 mi South 17.3 mph - N/A   Clear
12:15 PM 55.0 °F - 36.5 °F 50% 30.05 in 10.0 mi SSE 17.3 mph 21.9 mph N/A   Clear
12:55 PM 56.7 °F - 36.9 °F 48% 30.02 in 10.0 mi SSE 15.0 mph 19.6 mph N/A   Clear
1:15 PM 57.0 °F - 36.0 °F 45% 30.01 in 10.0 mi SSE 15.0 mph - N/A   Clear
1:35 PM 58.1 °F - 36.7 °F 45% 30.01 in 10.0 mi SSE 12.7 mph 19.6 mph N/A   Clear
1:55 PM 58.6 °F - 36.1 °F 43% 30.00 in 10.0 mi South 12.7 mph - N/A   Clear
2:15 PM 58.5 °F - 36.1 °F 43% 29.99 in 10.0 mi SSE 16.1 mph - N/A   Clear
2:35 PM 58.6 °F - 36.3 °F 43% 29.99 in 10.0 mi SSE 15.0 mph 21.9 mph N/A   Clear
2:55 PM 58.6 °F - 36.3 °F 43% 29.99 in 10.0 mi SSE 16.1 mph 20.7 mph N/A   Clear
3:15 PM 58.5 °F - 36.5 °F 44% 29.99 in 10.0 mi SSE 16.1 mph - N/A   Clear
3:35 PM 58.1 °F - 36.7 °F 45% 29.98 in 10.0 mi SSE 16.1 mph 20.7 mph N/A   Clear
3:55 PM 57.4 °F - 36.9 °F 46% 29.97 in 10.0 mi SSE 13.8 mph - N/A   Clear
4:15 PM 56.5 °F - 37.2 °F 49% 29.97 in 10.0 mi SSE 12.7 mph - N/A   Clear
4:35 PM 54.7 °F - 38.1 °F 54% 29.97 in 10.0 mi SE 11.5 mph - N/A   Clear
4:55 PM 52.0 °F - 38.3 °F 60% 29.96 in 10.0 mi SE 11.5 mph - N/A   Clear
5:15 PM 49.6 °F - 38.3 °F 65% 29.95 in 10.0 mi SE 10.4 mph - N/A   Clear
5:35 PM 49.3 °F - 38.5 °F 66% 29.96 in 10.0 mi SE 10.4 mph - N/A   Clear
5:55 PM 50.0 °F - 38.5 °F 65% 29.97 in 10.0 mi SSE 12.7 mph - N/A   Clear
6:15 PM 48.7 °F - 38.5 °F 68% 29.97 in 10.0 mi SE 9.2 mph - N/A   Clear
6:35 PM 47.7 °F - 38.3 °F 70% 29.97 in 10.0 mi SSE 9.2 mph - N/A   Clear
6:55 PM 46.6 °F - 38.3 °F 73% 29.97 in 10.0 mi SSE 6.9 mph - N/A   Clear
7:15 PM 44.8 °F 43.3 °F 37.6 °F 76% 29.98 in 10.0 mi SSE 3.5 mph - N/A   Clear
7:35 PM 45.3 °F 42.3 °F 37.4 °F 74% 29.98 in 10.0 mi SSE 5.8 mph - N/A   Clear
7:55 PM 45.1 °F 42.0 °F 37.2 °F 74% 29.98 in 10.0 mi SSE 5.8 mph - N/A   Clear
8:15 PM 44.1 °F 40.8 °F 36.9 °F 76% 29.99 in 10.0 mi SSE 5.8 mph - N/A   Clear
8:35 PM 45.1 °F 42.0 °F 37.2 °F 74% 29.99 in 10.0 mi SSE 5.8 mph - N/A   Clear
8:55 PM 44.6 °F 42.2 °F 36.5 °F 73% 29.99 in 10.0 mi SE 4.6 mph - N/A   Clear
9:15 PM 43.3 °F 39.9 °F 36.3 °F 76% 29.99 in 10.0 mi ESE 5.8 mph - N/A   Clear
9:35 PM 42.4 °F 38.1 °F 36.3 °F 79% 29.99 in 10.0 mi ESE 6.9 mph - N/A   Clear
9:55 PM 43.5 °F 38.9 °F 37.0 °F 78% 29.98 in 10.0 mi SE 8.1 mph - N/A   Clear
10:15 PM 42.3 °F 37.3 °F 36.5 °F 80% 29.98 in 10.0 mi ESE 8.1 mph - N/A   Clear
10:35 PM 43.0 °F 38.2 °F 37.2 °F 80% 29.98 in 10.0 mi SE 8.1 mph - N/A   Clear
10:55 PM 42.8 °F 37.5 °F 37.2 °F 81% 29.97 in 10.0 mi SE 9.2 mph - N/A   Clear
11:15 PM 42.8 °F 37.5 °F 37.4 °F 81% 29.97 in 10.0 mi SE 9.2 mph - N/A   Clear
11:35 PM 42.3 °F 37.3 °F 37.0 °F 82% 29.97 in 10.0 mi SE 8.1 mph - N/A   Clear
11:55 PM 41.7 °F 36.1 °F 36.7 °F 82% 29.97 in 10.0 mi SE 9.2 mph - N/A   Clear